Tobias Bolanos Internatio, Costa Rica

3:29 AM CST on December 18, 2017 (GMT -0600)
Tobias Bolanos International

Weather History for MRPV - June, 2014

Change the Weather History Date:

Sunday, June 8, 2014

  Actual Average Record
Temperature  
Mean Temperature 74 °F -  
Max Temperature 79 °F 78 °F 84 °F (2006)
Min Temperature 69 °F 67 °F 64 °F (2011)
Cooling Degree Days 9    
Growing Degree Days 24 (Base 50)    
Moisture  
Dew Point 63 °F    
Average Humidity 64    
Maximum Humidity 83    
Minimum Humidity 51    
Precipitation  
Precipitation 0.08 in - - ()
Sea Level Pressure  
Sea Level Pressure 29.96 in    
Wind  
Wind Speed 11 mph ()    
Max Wind Speed 17 mph    
Max Gust Speed -    
Visibility 6.1 miles    
Events      
Averages and records for this station are not official NWS values.
T = Trace of Precipitation, MM = Missing Value Source: Averaged Metar Reports

Daily Weather History Graph

Daily Weather History Graph

Search for Another Location

Airport or City:

Trip Planner

Search our weather history database for the weather conditions in past years. The results will help you decide how hot, cold, wet, or windy it might be!

Date:

Astronomy

Jun. 08, 2014 Rise Set
Actual Time 5:14 AM CST 5:56 PM CST
Civil Twilight 4:51 AM CST 6:19 PM CST
Nautical Twilight 4:25 AM CST 6:46 PM CST
Astronomical Twilight 3:57 AM CST 7:13 PM CST
Moon 1:55 PM CST (6/8) 1:19 AM CST (6/8)
Length of Visible Light 13h 27m
Length of Day
12h 41m
Waxing Gibbous, 77% of the Moon is Illuminated
Jun 8
Waxing Gibbous
Jun 12
Full
Jun 19
Last Quarter
Jun 27
New
Jul 5
First Quarter

Hourly Weather History & Observations

Time (CST) Temp. Dew Point Humidity Pressure Visibility Wind Dir Wind Speed Gust Speed Precip Events Conditions
6:00 AM 71 °F 60 °F 61% 29.88 in 6 mi East 9.2 mph - -   Clear
6:00 AM 69.8 °F 60.8 °F 73% 30.01 in - East 9.2 mph - N/A   Clear
7:00 AM 71.6 °F 60.8 °F 69% 30.04 in 6.2 mi East 12.7 mph - N/A   Mostly Cloudy
8:00 AM 73.4 °F 62.6 °F 69% 30.04 in 6.2 mi ESE 9.2 mph - N/A   Mostly Cloudy
9:00 AM 74 °F 63 °F 61% 29.86 in 6 mi East 15.0 mph - -   Scattered Clouds
9:00 AM 75.2 °F 62.6 °F 65% 30.05 in 6.2 mi East 15.0 mph - N/A   Mostly Cloudy
10:00 AM 78.8 °F 62.6 °F 57% 30.05 in 6.2 mi ENE 17.3 mph - N/A   Mostly Cloudy
11:00 AM 78.8 °F 64.4 °F 61% 30.03 in 6.2 mi ENE 12.7 mph - N/A   Scattered Clouds
12:00 PM 79 °F 64 °F 51% 29.83 in 6 mi East 13.8 mph - -   Overcast
12:00 PM 78.8 °F 64.4 °F 61% 30.01 in 6.2 mi East 13.8 mph - N/A   Mostly Cloudy
1:00 PM 77.0 °F 64.4 °F 65% 29.99 in 6.2 mi ENE 15.0 mph - N/A   Scattered Clouds
2:00 PM 78.8 °F 64.4 °F 61% 29.96 in 6.2 mi East 16.1 mph - N/A   Mostly Cloudy
3:00 PM 77 °F 64 °F 55% 29.79 in 6 mi East 15.0 mph - -   Overcast
3:00 PM 77.0 °F 64.4 °F 65% 29.96 in 6.2 mi East 15.0 mph - N/A   Mostly Cloudy
4:00 PM 77.0 °F 64.4 °F 65% 29.95 in 6.2 mi East 11.5 mph - N/A   Mostly Cloudy
5:00 PM 75.2 °F 62.6 °F 65% 29.96 in 6.2 mi East 6.9 mph - N/A   Mostly Cloudy
5:21 PM 75.2 °F 62.6 °F 65% 29.96 in 6.2 mi ENE 15.0 mph - N/A   Mostly Cloudy
6:00 PM 72 °F 64 °F 68% 29.84 in 6 mi ESE 8.1 mph - -   Overcast
6:00 PM 71.6 °F 66.2 °F 83% 29.99 in 6.2 mi East 8.1 mph - N/A   Scattered Clouds